Preview of NWS' New Version of Forecast
This preview is not operational and should not be used for support decisions.

Regional Weather Roundup (RWR)

Issued by Gray - Portland, ME (GYX)

                            
000
ASUS41 KGYX 181205
RWRGYX
WEATHER ROUNDUP FOR MAINE AND NEW HAMPSHIRE
NATIONAL WEATHER SERVICE GRAY ME
800 AM EDT THU APR 18 2019

MEZ002-005-006-010-012-015-018-020-021-024-026-027-029-181300-
MAINE
  
CITY           SKY/WX    TMP DP  RH WIND       PRES   REMARKS
PORTLAND       FAIR      43  31  62 S6        30.27R                  
6HR MIN TEMP:  30; 6HR MAX TEMP:  43;                                

SANFORD        PTSUNNY   43  32  65 SW3       30.25F                  
BAR HARBOR     FAIR      37  31  78 CALM      30.30R                  
WISCASSET      FAIR      40  34  79 CALM      30.29R                  
6HR MIN TEMP:  26; 6HR MAX TEMP:  40;                                

ROCKLAND       FAIR      43  37  79 S6        30.29R                  
FRYEBURG       PTSUNNY   35  26  69 CALM      30.24S                  
6HR MIN TEMP:  21; 6HR MAX TEMP:  35;                                

LEWISTONAUBURN FAIR      37  31  78 CALM      30.25S                  
AUGUSTA        FAIR      37  30  75 CALM      30.25S                  
6HR MIN TEMP:  30; 6HR MAX TEMP:  37;                                

WATERVILLE     FAIR      35  27  72 CALM      30.23S                  
BANGOR         FAIR      37  26  64 CALM      30.27S                  
6HR MIN TEMP:  24; 6HR MAX TEMP:  37;                                

GREENVILLE       N/A     39  18  42 SE10      30.18F                  
6HR MIN TEMP:  31; 6HR MAX TEMP:  39;                                

MILLINOCKET    FAIR      33  24  69 CALM      30.27F                  
6HR MIN TEMP:  25; 6HR MAX TEMP:  33;                                

HOULTON        FAIR      34  27  75 CALM      30.26S                  
6HR MIN TEMP:  21; 6HR MAX TEMP:  34;                                

PRESQUE ISLE   FAIR      33  28  81 CALM      30.27S                  
6HR MIN TEMP:  19; 6HR MAX TEMP:  33;                                

FRENCHVILLE    FAIR      34  20  56 SE6       30.22F                  
6HR MIN TEMP:  30; 6HR MAX TEMP:  35;                                

CARIBOU        FAIR      33  24  69 CALM      30.25S                  
6HR MIN TEMP:  24; 6HR MAX TEMP:  33;                                

$$

NHZ002-005-008-009-011-012-014-181300-
NEW HAMPSHIRE
  
CITY           SKY/WX    TMP DP  RH WIND       PRES   REMARKS
PORTSMOUTH     CLOUDY    43  34  70 SE5       30.24F                  
ROCHESTER      CLOUDY    36  32  85 E3        30.24F                  
6HR MIN TEMP:  28; 6HR MAX TEMP:  36;                                

NASHUA         CLOUDY    43  35  73 SE5       30.25F                  
MANCHESTER     LGT RAIN  42  34  73 S3        30.23F                  
6HR MIN TEMP:  38; 6HR MAX TEMP:  45; 6HR PCP: TRACE;                

CONCORD        CLOUDY    39  31  72 S5        30.24S                  
6HR MIN TEMP:  29; 6HR MAX TEMP:  39;                                

LACONIA        CLOUDY    34  30  85 NW3       30.24R                  
PLYMOUTH       CLOUDY    31  29  92 CALM      30.24R                  
BERLIN         FAIR      31  26  82 CALM      30.18R                  
6HR MIN TEMP:  22; 6HR MAX TEMP:  31;                                

WHITEFIELD     CLOUDY    33  26  75 CALM      30.16S                  
6HR MIN TEMP:  24; 6HR MAX TEMP:  33;                                

JAFFREY        CLOUDY    41  31  67 S7        30.20F                  
6HR MIN TEMP:  33; 6HR MAX TEMP:  42; 6HR PCP: TRACE;                

KEENE          CLOUDY    40  36  86 CALM      30.22S                  
LEBANON        LGT RAIN  42  31  64 VRB3      30.19R                  
6HR MIN TEMP:  29; 6HR MAX TEMP:  43; 6HR PCP: TRACE;                

MT WASHINGTON  NOT AVBL                                               
$$

VTZ005-007-008-181300-
VERMONT
  
CITY           SKY/WX    TMP DP  RH WIND       PRES   REMARKS
ST JOHNSBURY     N/A     31  26  82 MISG      30.16S                  
MONTPELIER     CLOUDY    40  28  62 S12       30.16S                  
BURLINGTON     LGT RAIN  47  31  53 S12       30.07F                  
$$

MAZ007-012-024-CTZ003-RIZ002-NYZ038-NYZ072-181300-
SOUTHERN NEW ENGLAND AND NY
  
CITY           SKY/WX    TMP DP  RH WIND       PRES   REMARKS
BOSTON         CLOUDY    47  36  65 S5        30.28S                  
WORCESTER      CLOUDY    41  29  62 SE9       30.22F                  
NANTUCKET      CLOUDY    44  37  76 SE9       30.30S                  
PROVIDENCE     PTSUNNY   45  38  76 SE6       30.27S                  
HARTFORD       CLOUDY    47  38  71 SE6       30.21S                  
ALBANY         LGT RAIN  49  32  52 S13       30.13R                  
NEW YORK CITY  CLOUDY    54  36  50 SE15      30.15F                  
$$

ANZ081-ANZ082-ANZ150-NHZ014-MEZ023>029-181300-
COASTAL MARINE OBSERVATIONS
  
STATION/POSITION TIME  TEMP    WIND        PRES    WAVE
                       AIR SEA DIR/SP/G            HT/PER
                 (UTC) (F)     (DEG/KT/KT) (MB)    (FT/S)
ISLE OF SHOALS   1100   42     200/  8/  9 1024.8R
CASHES LEDGE BUO 1050   44 41              1025.8    2/ 6
$$

.............KEY..............
   WCI - WIND CHILL
   TC  - TEMPERATURE IN CELSIUS
   VSB - VISIBILITY IN MILES
   HX  - HEAT INDEX
   FAIR- INDICATES FEW OR NO CLOUDS BELOW 12,000 FT, WITH NO 
         SIGNIFICANT WEATHER AND/OR OBSTRUCTIONS TO VISIBILITY.